Location: Arclight Observatory
(36.5667°N, 87.3333°W)
Time: 10:02:07
(UTC-05:00)

Daily predictions for brighter satellites

Satellite Brightness Start Highest point End
(mag) Time Altitude Azimuth Time Altitude Azimuth Time Altitude Azimuth
SL-16 R/B 3.2 19:48:32 10° SSE 19:52:54 24° E 19:57:17 10° NE
Nadezhda 4 Rocket 4.1 19:48:46 10° N 19:54:58 59° E 20:01:10 10° SSE
FengYun 1-2 T 4.3 19:50:21 10° SSE 19:56:00 77° ENE 20:01:39 10° N
GPS 2-04 Rocket1 4.0 19:54:25 10° W 19:57:28 27° SSW 20:00:39 10° SE
ATLAS 5 CENTAUR R/B 4.5 19:58:42 10° NNE 20:00:39 11° NE 20:02:38 10° NE
Cosmos 1634 Rocket 4.5 19:54:57 10° SSE 20:00:42 39° E 20:06:31 10° NNE
Cosmos 1707 Rocket 3.9 19:58:35 10° SSE 20:02:50 46° E 20:07:05 10° NNE
HJ-1C 3.6 20:00:38 10° S 20:04:05 79° WSW 20:07:33 10° NNW
Cosmos 1092 Rocket 4.3 19:58:32 10° N 20:04:41 50° E 20:10:48 10° SSE
USA 186 2.6 20:03:17 10° SE 20:05:32 24° ENE 20:07:54 10° NNE
Lacrosse 4 Rocket 3.4 20:02:55 10° NNE 20:05:38 16° NE 20:08:22 10° E
Helios 1B rocket 3.4 20:02:26 10° NE 20:05:56 27° E 20:09:24 10° SSE
Cosmos 2034 Rocket 4.5 20:01:41 10° SSW 20:07:48 66° W 20:13:56 10° N
ALOS 2.9 20:04:25 10° S 20:09:01 60° W 20:13:38 10° NNW
ERBS 4.1 20:07:19 10° NNW 20:10:01 21° NE 20:12:43 10° E
CENTAUR R/B 3.9 20:04:57 10° WSW 20:10:37 42° NW 20:17:01 10° NNE
Gblst 52 Del rocket 4.2 20:05:03 10° NW 20:10:58 88° NE 20:16:27 10° SE
Cosmos 1939 Rocket 4.5 20:08:29 10° ESE 20:11:18 18° ENE 20:14:06 10° NNE
Cosmos 1486 Rocket 4.2 20:08:27 10° N 20:13:34 53° ENE 20:18:40 10° SE
Resurs 1-3 3.6 20:16:21 10° SSE 20:20:43 82° ENE 20:25:07 10° N
Cosmos 2360 4.5 20:17:34 10° SSW 20:23:16 77° WNW 20:29:02 10° NNE
Cosmos 1869 Rocket 3.5 20:18:50 10° N 20:23:20 81° E 20:27:47 10° S
Cosmos 2227 4.3 20:18:08 10° NNW 20:23:48 60° ENE 20:29:16 11° SE
Atlas Centaur 2 3.5 20:19:27 10° SW 20:25:30 33° SSE 20:31:32 13° E
Cosmos 1408 3.7 20:22:23 10° NNE 20:25:32 26° ENE 20:27:28 17° ESE
Molniya-1 4.4 20:28:08 10° WSW 20:29:38 30° NW 20:31:26 10° NNE
SL-8 R/B 4.5 20:25:10 10° WNW 20:29:47 46° SW 20:33:57 12° SSE
Abrixas rocket 4.5 20:27:40 10° W 20:30:27 25° NNW 20:33:14 10° NNE
Cosmos 2242 Rocket 3.8 20:30:02 10° SSE 20:34:23 49° E 20:38:43 10° NNE
Cosmos 1455 3.2 20:32:05 10° SSW 20:35:46 49° W 20:39:27 10° N
Helios 1A 3.0 20:36:34 13° SSE 20:40:20 66° ENE 20:44:33 10° N
Cosmos 2279 Rocket 4.2 20:35:57 10° SSE 20:41:54 49° E 20:47:53 10° NNE
Cosmos 2195 Rocket 4.4 20:36:22 10° N 20:42:28 66° E 20:48:33 10° SSE
Meteor 2-20 4.4 20:38:10 10° N 20:44:19 81° E 20:50:27 10° S
Cosmos 1503 Rocket 4.2 20:39:49 10° N 20:44:57 51° ENE 20:48:09 22° SE
DELTA 2 R/B (1) 3.9 20:40:35 10° WNW 20:46:04 55° SSW 20:49:34 22° SE
CZ-3B DEB 2.9 20:45:50 10° WNW 20:48:28 18° WSW 20:50:17 10° SSW
Cosmos 1869 3.5 20:44:48 10° SSW 20:48:42 70° W 20:52:39 10° N
Cosmos 1354 Rocket 4.1 20:43:44 10° N 20:48:56 57° ENE 20:52:09 23° SE
Spot 2 Rocket 4.4 20:44:57 10° S 20:49:51 48° W 20:54:47 10° NNW
Resurs 01 Rocket 3.1 20:47:48 10° SSW 20:51:53 36° W 20:56:01 10° NNW
Spot 1 4.5 20:48:46 11° SSE 20:53:43 90° WSW 20:58:52 10° NNW
OAO 3 Rocket 3.2 20:48:57 10° W 20:53:51 74° S 20:56:38 26° E
SJ-11-01 4.3 20:51:19 20° SSE 20:54:27 65° ENE 20:59:05 10° N
CZ-4B DEB 2.5 20:54:21 38° SSE 20:55:23 75° ENE 20:58:26 10° N
YAOGAN 6 3.3 20:56:56 32° E 20:57:26 34° ENE 21:00:45 10° N
FALCON 9 R/B 0.7 20:58:49 10° WSW 21:00:47 44° SW 21:00:47 44° SW
Meteor 1-29 3.2 20:59:00 10° N 21:02:28 68° WNW 21:05:53 10° SSW
SPOT 5 4.2 21:04:10 22° ENE 21:04:44 22° ENE 21:08:21 10° NNE
Cosmos 2263 Rocket 2.6 21:01:07 10° N 21:06:26 44° ENE 21:08:25 32° ESE
Meteor 2-10 Rocket 4.1 21:05:37 26° SSE 21:08:30 45° E 21:14:01 10° NNE
Cosmos 2322 Rocket 2.4 21:03:16 10° SSW 21:08:50 72° WNW 21:14:28 10° NNE
Envisat 3.1 21:05:47 17° S 21:09:45 76° WSW 21:14:50 10° NNW
Cosmos 220 Rocket 4.1 21:06:55 10° NNW 21:11:22 77° WSW 21:13:27 31° S
Cosmos 1933 3.2 21:11:30 32° S 21:13:18 77° E 21:17:20 10° N
Sich 1 Rocket 4.4 21:12:29 10° NNE 21:16:31 34° ENE 21:16:31 34° ENE
Cosmos 2360 Rocket 2.3 21:15:49 22° S 21:19:14 51° ESE 21:24:42 10° NNE
Cosmos 1825 3.1 21:21:59 10° NNW 21:25:38 45° W 21:27:16 27° SSW
USA 234 3.2 21:22:52 35° SE 21:25:59 88° SW 21:32:35 10° NW
Cosmos 2322 3.8 21:25:28 39° SSE 21:27:05 51° ESE 21:32:36 10° NNE
Cosmos 2026 Rocket 4.5 21:23:03 10° NNW 21:29:07 58° W 21:34:22 14° SSW
Cosmos 1908 Rocket 3.9 21:24:58 10° N 21:28:49 45° ENE 21:28:49 45° ENE
NOAA 11 4.4 21:28:03 45° ESE 21:29:16 54° ENE 21:34:37 10° N
SEDSat Delta rocket 3.9 21:24:22 10° WSW 21:29:41 50° S 21:30:35 46° SE
SL-16 R/B 3.4 21:31:20 10° SW 21:36:40 42° WNW 21:42:03 10° N
Cosmos 1862 4.1 21:35:29 10° NNW 21:39:22 49° W 21:40:18 40° SW
SPOT 1/Viking Rocket 4.3 21:40:22 36° ENE 21:40:22 36° ENE 21:44:59 10° N
MetOp-B 4.0 21:42:09 60° SE 21:42:56 70° ENE 21:48:16 10° N
ERS-1 Rocket 3.0 21:42:09 51° S 21:43:24 76° WSW 21:48:27 10° NNW
Lacrosse 4 Rocket 2.2 21:40:24 10° NW 21:44:34 47° WSW 21:45:08 44° SW
ATLAS 5 CENTAUR R/B 2.7 21:40:39 10° NNW 21:46:36 54° NE 21:47:45 48° E
ERBS 4.1 21:43:38 10° WNW 21:46:04 28° WSW 21:46:04 28° WSW
Cosmos 1733 Rocket 4.3 21:45:41 10° NNW 21:49:48 38° W 21:51:21 28° SW
Milstar 3 3.4 21:46:15 10° WSW 21:52:45 36° SSW 21:53:10 36° S
ARGOS 3.1 21:52:58 66° E 21:53:09 66° ENE 21:58:29 10° N
SeaSat 1 2.6 21:57:02 60° NE 21:57:02 60° NE 22:01:41 10° NNW
Cosmos 2278 Rocket 4.4 21:58:05 10° NNE 21:59:55 11° NE 22:00:07 11° NE
Meteor 1-26 Rocket 4.4 21:58:32 41° SSW 22:00:32 72° W 22:06:18 10° N
Okean 1-7 4.3 22:07:56 36° NNE 22:07:56 36° NNE 22:10:35 10° N
Terra 3.5 22:10:04 23° NE 22:10:04 23° NE 22:12:29 10° N
SL-08 RB Rocket 4.3 22:09:49 51° N 22:09:49 51° N 22:13:17 10° N
Cosmos 1844 Rocket 3.8 22:04:49 10° N 22:09:04 30° NE 22:09:04 30° NE
USA 229 DEB 3.6 22:03:13 10° SSW 22:10:02 87° WNW 22:17:00 10° NNE
USA 229 3.6 22:03:19 10° SSW 22:10:08 87° WNW 22:17:05 10° NNE
Cosmos 1703 Rocket 4.4 22:14:11 49° NW 22:14:11 49° NW 22:17:58 10° N
Atlas Centaur 2 3.1 22:07:16 10° WSW 22:14:12 53° S 22:14:12 53° S
Cosmos 2266 Rocket 4.1 22:11:00 10° N 22:17:15 72° W 22:18:12 62° SW
MOS 1-B Rocket 3.9 22:22:53 74° SW 22:23:09 75° WSW 22:28:51 10° NNW
Cosmos 2219 Rocket 4.0 22:28:37 20° NE 22:28:37 20° NE 22:30:19 10° NE
CZ-4C R/B 4.3 22:24:57 10° N 22:30:34 24° NE 22:32:09 23° ENE
H-2A R/B 2.7 22:33:27 50° NNW 22:33:27 50° NNW 22:37:05 10° NNW
Cosmos 1867 4.1 22:28:22 10° NNW 22:32:45 57° NW 22:32:45 57° NW
SPOT 5 4.3 22:43:24 33° WNW 22:43:24 33° WNW 22:46:57 10° NNW
Cosmos 2263 Rocket 4.0 22:45:50 10° NW 22:49:58 22° W 22:50:08 22° WSW
COSMOS 2428 3.4 22:52:07 50° NNW 22:52:07 50° NNW 22:56:40 10° NNE
H-2A R/B 3.9 21:51:23 10° W 22:51:12 56° SSW 22:51:34 55° S
H-2A R/B 4.4 23:01:05 22° NNW 23:01:05 22° NNW 23:02:38 10° NNW
Cosmos 2360 Rocket 4.4 22:59:18 10° WSW 23:03:31 21° WNW 23:07:45 10° N
ATLAS 5 CENTAUR R/B 4.2 23:26:03 10° WNW 23:29:18 23° W 23:29:18 23° W
Cosmos 2333 Rocket 3.8 23:34:09 31° N 23:34:09 31° N 23:37:09 10° NNE
Cosmos 2237 Rocket 4.0 23:41:33 26° NNE 23:41:33 26° NNE 23:43:55 10° NNE
Cosmos 2278 Rocket 3.8 23:39:11 10° NNW 23:41:58 30° NNW 23:41:58 30° NNW
Terra 4.5 23:48:56 15° NW 23:48:56 15° NW 23:50:02 10° NW
